Home   Weather   Valletta   Past weeks

Flag for Malta Past Weather in Valletta, Malta — Yesterday and Last 2 Weeks

Now
59 °F

Passing clouds.


Feels Like: 54 °F
Forecast: 48 / 59 °F
Wind: 29 mph from Southeast

Location: Luqa

Current Time: Jan 21, 2017 at 8:46:58 pm

Latest Report: Jan 21, 2017 at 7:45 pm


Visibility: 6 mi

Pressure: 30.07 "Hg

Humidity: 77%

Dew Point: 52 °F

Location of VallettaLocation

Past Weather in Valletta — Graph

°F

Valletta Temperature Yesterday

Maximum temperature yesterday: 61 °F (at 12:45 pm)
Minimum temperature yesterday: 46 °F (at 12:15 am)
Average temperature yesterday: 55 °F

High & Low Weather Summary for the Past Weeks

 TemperatureHumidityPressure
High63 °F (Jan 21, 11:15 am)100% (Jan 12, 6:45 am)30.27 "Hg (Jan 12, 6:45 am)
Low41 °F (Jan 6, 7:45 pm)40% (Jan 10, 1:15 am)29.65 "Hg (Jan 17, 4:15 am)
Average51 °F66%29.99 "Hg
* Reported Jan 6 7:15 pm — Jan 21 7:15 pm, Valletta, Weather by CustomWeather, © 2017

Note: Actual official high and low records may vary slightly from our data, if they occured in-between our weather recording intervals... More about our weather records

Advertising

Valletta Weather History for the Previous 24 Hours

Scroll right to see more
 ConditionsComfort  
Time TempWeatherWind HumidityBarometerVisibility
7:15 pm
Sat, Jan 21
59 °FPassing clouds.26 mph77%30.07 "Hg6 mi
6:45 pm59 °FPassing clouds.23 mph77%30.07 "Hg6 mi
6:15 pm59 °FPassing clouds.25 mph77%30.07 "Hg6 mi
5:45 pm59 °FPassing clouds.24 mph77%30.04 "Hg6 mi
5:15 pm59 °FScattered clouds.26 mph77%30.04 "Hg6 mi
4:45 pm59 °FBroken clouds.26 mph77%30.04 "Hg6 mi
4:15 pm59 °FBroken clouds.28 mph77%30.04 "Hg6 mi
3:45 pm59 °FScattered clouds.24 mph77%30.04 "Hg6 mi
3:15 pm61 °FPartly sunny.25 mph72%30.04 "Hg6 mi
2:45 pm61 °FPartly sunny.23 mph72%30.04 "Hg6 mi
2:15 pm61 °FBroken clouds.26 mph72%30.04 "Hg6 mi
1:45 pm61 °FScattered clouds.29 mph77%30.04 "Hg6 mi
1:15 pm61 °FScattered clouds.26 mph77%30.04 "Hg6 mi
12:45 pm61 °FPartly sunny.29 mph77%30.07 "Hg6 mi
12:15 pm61 °FPartly sunny.28 mph77%30.07 "Hg6 mi
11:45 am61 °FPartly sunny.25 mph77%30.09 "Hg5 mi
11:15 am63 °FPartly sunny.29 mph73%30.09 "Hg5 mi
10:45 am61 °FScattered clouds.26 mph83%30.09 "Hg5 mi
10:15 am61 °FScattered clouds.25 mph83%30.12 "Hg5 mi
9:45 am61 °FScattered clouds.28 mph77%30.09 "HgN/A
9:15 am59 °FScattered clouds.26 mph82%30.09 "HgN/A
8:45 am59 °FScattered clouds.26 mph82%30.09 "HgN/A
8:15 am59 °FPartly sunny.26 mph77%30.09 "HgN/A
7:45 am57 °FPartly sunny.29 mph82%30.09 "HgN/A
7:15 am57 °FPartly sunny.26 mph82%30.09 "HgN/A
6:45 am57 °FPassing clouds.26 mph82%30.09 "HgN/A
6:15 am57 °FPassing clouds.25 mph82%30.09 "HgN/A
5:45 am57 °FPassing clouds.26 mph82%30.09 "HgN/A
5:15 am57 °FPassing clouds.28 mph82%30.09 "HgN/A
4:45 am57 °FPassing clouds.29 mph82%30.09 "HgN/A
4:15 am57 °FPartly cloudy.28 mph82%30.09 "HgN/A
3:45 am57 °FPassing clouds.26 mph82%30.09 "HgN/A
3:15 am57 °FPassing clouds.29 mph82%30.12 "HgN/A
2:45 am59 °FPassing clouds.30 mph77%30.12 "HgN/A
2:15 am57 °FPassing clouds.28 mph82%30.12 "HgN/A
1:45 am57 °FPassing clouds.25 mph82%30.12 "HgN/A
1:15 am57 °FPassing clouds.25 mph88%30.12 "HgN/A
12:45 am57 °FPassing clouds.23 mph88%30.12 "HgN/A
12:15 am57 °FPassing clouds.22 mph82%30.15 "HgN/A
11:45 pm
Fri, Jan 20
57 °FPassing clouds.24 mph88%30.15 "HgN/A
11:15 pm59 °FPassing clouds.24 mph77%30.15 "HgN/A
10:45 pm57 °FPassing clouds.23 mph82%30.15 "HgN/A
10:15 pm57 °FPassing clouds.22 mph82%30.15 "HgN/A
9:45 pm59 °FPassing clouds.22 mph77%30.15 "HgN/A
9:15 pm57 °FPassing clouds.22 mph82%30.15 "HgN/A
8:45 pm57 °FPassing clouds.18 mph82%30.15 "HgN/A
8:15 pm59 °FPassing clouds.18 mph77%30.15 "HgN/A
Weather by CustomWeather, © 2017

See weather overviewHow to use our weather pages